Showing default

LUCH 1, 23680

Orbit data source: Space-Track

LUCH 1, 23680 is a payload satellite owned by VKS (CIS) in GEO that was launched on Wed, 11 Oct 1995 UTC via a PROTON-K/DM-2 launch vehicle from the Tyuratam Missile And Space Complex (TTMTR). Payload-class satellites include a variety of spacecraft equipped with specific instruments for various scientific and technological missions. These include communications satellites like Starlink; space stations such as the ISS; scientific satellites like the Hubble; Earth observation satellites from companies like Planet Labs, Umbra, and HawkEye 360; GPS; miniature CubeSats for education and research; and military/defense satellites.

Not visible in the next 10 days
Identifier
23680, 1995-054A
Orbit
GEO
Country
Flag of CISCIS
Related business
Manufacturer
NPO PM
Mission
Defense Communications
Bus & Motor
KAUR-4 AL'TAIR, Unknown motor
Mass
2,400 kg wet, ~2,200 kg dry
Launch date (UTC)
1995-10-11 (30 years ago)
Launch vehicle
PROTON-K/DM-2
Launch site
Tyuratam Missile And Space Complex (TTMTR)
Object type
Payload
Rocket body
Debris
Shape & HBR
Cyl + 2 Pan + 2 Dish, 8.0 m
Radar Cross Section
40.926 m², Large (>1 m²)

Expand to show TLE details & history
Last TLE update: 16 hours ago

TLE from 16 hours ago
0 LUCH 1
1 23680U 95054A   25299.84772252 -.00000125  00000-0  00000-0 0  9995
2 23680  15.0018   1.0893 0007531 161.7132 255.4893  1.00271642110016
Epoch: 2025-10-26T20:20Z
TLE epoch observation values (Epoch: 2025-10-26T20:20:43.225Z)
Latitude
12.56645°
Longitude
76.63276°
Altitude
35,793.682 km
Speed
3.074 km/s
True Right ascension
03h 49m 05s
True Declination
12° 33' 15"
Sunlit
Object was in daylight at epoch
Visualization orbit readout
Latitude
Unknown
Longitude
Unknown
Altitude
Unknown
Speed
Unknown
Apparent Right ascension
Unknown
Apparent Declination
Unknown
Sunlit
N/A
Visualization observer readout
Local Sidereal Time
07:51:54
Azimuth
Unknown
Elevation
Unknown
Doppler factor
Unknown
Orbital elements
Apogee altitude
35,819.355 km
Perigee altitude
35,755.845 km
Semi-major axis
42,165.737 km
Eccentricity
0.00075
Inclination
15.0018°
RAAN
1.0893°
Arg. of periapsis
161.7132°
True anomaly
255.40577°
Mean anomaly
255.4893°
Eccentric anomaly
255.44753°
Mean motion
0.25067 °/min
Orbital period
1,436.15 mins
BSTAR
0
Loading maneuver chart data...
Computing Atmospheric mass density...
Loading historical data...
Loading historical data...
Loading historical data...
Loading historical data...
Loading historical data...
Loading historical data...
Loading historical data...

Documentation

Showing up to 5 results
|